Regional Weather Roundup
Issued by NWS

Home | Current Version | Previous Version | Text Only | Print | Product List | Glossary Off
Versions: 1 2 3 4 5 6 7 8 9 10 11 12 13 14 15 16 17 18 19 20 21 22 23 24 25 26 27 28 29 30 31 32 33 34 35 36 37 38 39 40 41 42 43 44 45 46 47 48 49 50

000
ASUS45 KCYS 271110
RWRWY

WYOMING REGIONAL WEATHER ROUNDUP
NATIONAL WEATHER SERVICE CHEYENNE WY
500 AM MDT WED MAY 27 2015

NOTE:  "FAIR" INDICATES FEW OR NO CLOUDS BELOW 12,000 FEET
WITH NO SIGNIFICANT WEATHER AND/OR OBSTRUCTIONS TO VISIBILITY.

WYZ001-271200-
YELLOWSTONE NATIONAL PARK

CITY           SKY/WX    TMP DP  RH WIND       PRES   REMARKS
LK YELLOWSTONE   N/A     37  35  92 CALM      30.15S
W YELLOWSTONE  NOT AVBL

$$
WYZ002>013-054>058-071-098>099-271200-
NORTHERN WYOMING

CITY           SKY/WX    TMP DP  RH WIND       PRES   REMARKS
JACKSON        CLOUDY    39  39 100 SE3       30.11S
CODY           CLOUDY    50  46  87 CALM      30.01R
GREYBULL       CLOUDY    54  52  93 S3        29.98S
WORLAND        FAIR      50  49  96 CALM      29.99R
SHERIDAN       FAIR      48  46  93 NW8       29.96R
BUFFALO        CLOUDY    52  47  83 SE6       29.97F
GILLETTE       FAIR      47  45  93 S8        29.97S
HULETT         FAIR      54  48  82 MISG      30.00R
NEWCASTLE      FAIR      50  45  81 SE7       30.03R

$$
WYZ014>020-022>026-101>103-271200-
CENTRAL WYOMING

CITY           SKY/WX    TMP DP  RH WIND       PRES   REMARKS
BIG PINEY      FAIR      38  36  92 CALM      30.12R
PINEDALE       FAIR      41  39  93 W6        30.13S
DUBOIS         FAIR      39  34  81 NW13      30.08F WCI  32
LANDER         FAIR      44  39  82 SW3       30.02R
RIVERTON       FAIR      46  44  93 NW6       30.02R
CASPER         CLOUDY    50  46  86 S7        30.03S
DOUGLAS        CLOUDY    50  48  93 SE6       30.02F

$$
WYZ021-027>030-104>119-271200-
SOUTHERN WYOMING

CITY           SKY/WX    TMP DP  RH WIND       PRES   REMARKS
EVANSTON       FAIR      39  38  96 SW9       30.14S WCI  33
KEMMERER       FAIR      37  36  93 NW6       30.14R WCI  33
FORT BRIDGER   SUNNY     43  43 100 SW9       30.16S
ROCK SPRINGS   FAIR      44  41  89 SW9       30.12R
DIXON          DRIZZLE   47  44  90 S9        30.17R
RAWLINS        CLOUDY    47  44  90 SW6       30.11S
SARATOGA       CLOUDY    46  43  87 S3        30.13F
LARAMIE        CLOUDY    45  40  82 W5        30.12F
CHEYENNE       CLOUDY    50  46  86 CALM      30.08F
TORRINGTON     FAIR      52  50  93 E8        30.01S
PINE BLUFFS    FAIR      45  45 100 CALM      30.07R

$$


USA.gov is the U.S. government's official web portal to all federal, state and local government web resources and services.